Time,TemperatureF,DewpointF,PressureIn,WindDirection,WindDirectionDegrees,WindSpeedMPH,WindSpeedGustMPH,Humidity,HourlyPrecipIn,Conditions,Clouds,dailyrainin,SoftwareType,DateUTC
2013-07-26 00:02:00,58.0,52.0,-100.00,West,275,6.0,8.0,81,0.00,,,0.00,,2013-07-26 05:02:00,
2013-07-26 00:12:00,58.0,54.0,-100.00,WNW,285,3.0,8.0,81,0.00,,,0.00,,2013-07-26 05:12:00,
2013-07-26 00:43:00,58.0,54.0,-100.00,West,270,4.0,7.0,84,0.00,,,0.00,,2013-07-26 05:43:00,
2013-07-26 01:12:00,58.0,55.0,-100.00,WNW,285,5.0,12.0,88,0.00,,,0.00,,2013-07-26 06:12:00,
2013-07-26 01:33:00,58.0,55.0,-100.00,West,260,4.0,7.0,89,0.00,,,0.00,,2013-07-26 06:33:00,
2013-07-26 01:43:00,57.0,55.0,-100.00,West,265,6.0,8.0,90,0.00,,,0.00,,2013-07-26 06:43:00,
2013-07-26 02:12:00,57.0,55.0,-100.00,WSW,250,6.0,7.0,92,0.00,,,0.00,,2013-07-26 07:12:00,
2013-07-26 02:43:00,56.0,54.0,-100.00,West,265,7.0,9.0,93,0.00,,,0.00,,2013-07-26 07:43:00,
2013-07-26 03:12:00,57.0,55.0,-100.00,West,280,7.0,11.0,92,0.00,,,0.00,,2013-07-26 08:12:00,
2013-07-26 03:44:00,57.0,54.0,-100.00,West,265,6.0,11.0,89,0.00,,,0.00,,2013-07-26 08:44:00,
2013-07-26 04:12:00,58.0,54.0,-100.00,WSW,255,6.0,7.0,87,0.00,,,0.00,,2013-07-26 09:12:00,
2013-07-26 04:43:00,57.0,54.0,-100.00,West,265,7.0,12.0,89,0.00,,,0.00,,2013-07-26 09:43:00,
2013-07-26 05:02:00,57.0,54.0,-100.00,West,265,7.0,11.0,90,0.00,,,0.00,,2013-07-26 10:02:00,
2013-07-26 05:12:00,57.0,54.0,-100.00,West,280,7.0,10.0,90,0.00,,,0.00,,2013-07-26 10:12:00,
2013-07-26 05:42:00,57.0,54.0,-100.00,West,275,6.0,11.0,90,0.00,,,0.00,,2013-07-26 10:42:00,
2013-07-26 06:12:00,56.0,54.0,-100.00,West,280,4.0,9.0,93,0.00,,,0.00,,2013-07-26 11:12:00,
2013-07-26 06:43:00,56.0,54.0,-100.00,NW,320,5.0,14.0,95,0.00,,,0.00,,2013-07-26 11:43:00,
2013-07-26 07:12:00,55.0,54.0,-100.00,NNW,335,7.0,12.0,95,0.00,,,0.00,,2013-07-26 12:12:00,
2013-07-26 07:43:00,55.0,54.0,-100.00,NNW,330,4.0,14.0,94,0.00,,,0.00,,2013-07-26 12:43:00,
2013-07-26 08:02:00,55.0,52.0,-100.00,North,0,9.0,21.0,89,0.00,,,0.00,,2013-07-26 13:02:00,
2013-07-26 08:12:00,55.0,52.0,-100.00,North,5,6.0,16.0,89,0.00,,,0.00,,2013-07-26 13:12:00,
2013-07-26 08:43:00,55.0,52.0,-100.00,NW,320,4.0,12.0,90,0.00,,,0.00,,2013-07-26 13:43:00,
2013-07-26 09:12:00,54.0,54.0,-100.00,NW,315,8.0,15.0,93,0.00,,,0.00,,2013-07-26 14:12:00,
2013-07-26 09:43:00,54.0,52.0,-100.00,North,350,9.0,17.0,93,0.00,,,0.00,,2013-07-26 14:43:00,
2013-07-26 10:12:00,57.0,52.0,-100.00,North,355,9.0,21.0,80,0.00,,,0.00,,2013-07-26 15:12:00,
2013-07-26 10:43:00,58.0,50.0,-100.00,North,350,7.0,24.0,73,0.00,,,0.00,,2013-07-26 15:43:00,
2013-07-26 11:14:00,58.0,48.0,-100.00,North,0,11.0,23.0,70,0.00,,,0.00,,2013-07-26 16:14:00,
2013-07-26 11:43:00,61.0,48.0,-100.00,NNE,20,9.0,26.0,64,0.00,,,0.00,,2013-07-26 16:43:00,
2013-07-26 12:12:00,59.0,48.0,-100.00,North,355,10.0,19.0,68,0.00,,,0.00,,2013-07-26 17:12:00,
2013-07-26 12:33:00,56.0,52.0,-100.00,NNW,330,9.0,21.0,82,0.00,,,0.00,,2013-07-26 17:33:00,
2013-07-26 12:43:00,56.0,52.0,-100.00,NNW,345,7.0,20.0,85,0.00,,,0.00,,2013-07-26 17:43:00,
2013-07-26 13:12:00,60.0,54.0,-100.00,NNE,15,5.0,13.0,77,0.00,,,0.00,,2013-07-26 18:12:00,
2013-07-26 13:43:00,60.0,48.0,-100.00,North,5,14.0,26.0,64,0.00,,,0.00,,2013-07-26 18:43:00,
2013-07-26 14:12:00,60.0,48.0,-100.00,North,0,10.0,17.0,62,0.00,,,0.00,,2013-07-26 19:12:00,
2013-07-26 14:43:00,60.0,46.0,-100.00,North,5,11.0,17.0,61,0.00,,,0.00,,2013-07-26 19:43:00,
2013-07-26 15:12:00,60.0,45.0,-100.00,North,350,10.0,19.0,56,0.00,,,0.00,,2013-07-26 20:12:00,
2013-07-26 15:43:00,62.0,43.0,-100.00,NW,320,9.0,17.0,49,0.00,,,0.00,,2013-07-26 20:43:00,
2013-07-26 16:43:00,60.0,45.0,-100.00,North,5,9.0,14.0,58,0.00,,,0.00,,2013-07-26 21:43:00,
2013-07-26 17:12:00,59.0,45.0,-100.00,North,355,10.0,14.0,58,0.00,,,0.00,,2013-07-26 22:12:00,
2013-07-26 17:43:00,60.0,45.0,-100.00,North,0,7.0,14.0,56,0.00,,,0.00,,2013-07-26 22:43:00,
2013-07-26 18:12:00,59.0,46.0,-100.00,North,355,4.0,12.0,64,0.00,,,0.00,,2013-07-26 23:12:00,
2013-07-26 18:43:00,58.0,46.0,-100.00,North,0,7.0,16.0,65,0.00,,,0.00,,2013-07-26 23:43:00,
2013-07-26 18:52:00,58.0,46.0,-100.00,North,355,8.0,19.0,65,0.00,,,0.00,,2013-07-26 23:52:00,
2013-07-26 19:02:00,57.0,45.0,-100.00,NE,35,7.0,15.0,65,0.00,,,0.00,,2013-07-27 00:02:00,
2013-07-26 19:22:00,57.0,45.0,-100.00,North,0,4.0,12.0,65,0.00,,,0.00,,2013-07-27 00:22:00,
2013-07-26 19:43:00,56.0,43.0,-100.00,North,0,7.0,14.0,63,0.00,,,0.00,,2013-07-27 00:43:00,
2013-07-26 19:53:00,56.0,45.0,-100.00,NNE,30,4.0,11.0,63,0.00,,,0.00,,2013-07-27 00:53:00,
2013-07-26 20:22:00,55.0,45.0,-100.00,North,0,4.0,7.0,67,0.00,,,0.00,,2013-07-27 01:22:00,
2013-07-26 20:32:00,55.0,45.0,-100.00,North,5,4.0,12.0,67,0.00,,,0.00,,2013-07-27 01:32:00,
2013-07-26 20:43:00,54.0,45.0,-100.00,North,0,4.0,9.0,67,0.00,,,0.00,,2013-07-27 01:43:00,
2013-07-26 21:02:00,54.0,45.0,-100.00,North,0,5.0,9.0,68,0.00,,,0.00,,2013-07-27 02:02:00,
2013-07-26 21:12:00,53.0,45.0,-100.00,NE,35,2.0,6.0,71,0.00,,,0.00,,2013-07-27 02:12:00,
2013-07-26 21:22:00,52.0,45.0,-100.00,North,0,4.0,7.0,73,0.00,,,0.00,,2013-07-27 02:22:00,
2013-07-26 22:03:00,51.0,43.0,-100.00,North,0,4.0,11.0,75,0.00,,,0.00,,2013-07-27 03:03:00,
2013-07-26 22:12:00,51.0,43.0,-100.00,North,355,4.0,9.0,74,0.00,,,0.00,,2013-07-27 03:12:00,
2013-07-26 22:44:00,49.0,43.0,-100.00,NNE,25,3.0,7.0,78,0.00,,,0.00,,2013-07-27 03:44:00,
2013-07-26 22:52:00,49.0,43.0,-100.00,North,350,4.0,7.0,79,0.00,,,0.00,,2013-07-27 03:52:00,
2013-07-26 23:12:00,47.0,43.0,-100.00,NW,325,1.0,2.0,83,0.00,,,0.00,,2013-07-27 04:12:00,
2013-07-26 23:22:00,46.0,43.0,-100.00,NNW,335,1.0,3.0,86,0.00,,,0.00,,2013-07-27 04:22:00,
2013-07-26 23:43:00,45.0,43.0,-100.00,NW,325,1.0,2.0,89,0.00,,,0.00,,2013-07-27 04:43:00,